Flag for Spain Weather past 2 weeks in Granada, Spain

Now
45 °F

Clear.


Feels Like: 45 °F
Forecast: 50 / 74 °F
Wind: No wind

Location: Granada / Aeropuerto

Current Time: Oct 26, 2014 at 5:26:20 AM

Latest Report: Oct 26, 2014 at 5:00 AM


Visibility: 10 mi

Pressure: 30.18 "Hg

Humidity: 87%

Dew point: 41 °F

Location of GranadaLocation

Historic Weather in Granada — Graph

°F

Granada temperature yesterday

Maximum temperature yesterday: 84 °F (at 4:00 PM)
Minimum temperature yesterday: 45 °F (at 8:00 AM)
Average temperature yesterday: 62 °F

Past Weeks' High & Low Weather Summary

 TemperatureHumidityPressure
High91 °F (Oct 19, 3:30 PM)100% (Oct 11, 6:00 AM)30.36 "Hg (Oct 11, 6:00 AM)
Low43 °F (Oct 23, 8:30 AM)15% (Oct 19, 3:30 PM)29.80 "Hg (Oct 11, 5:00 PM)
Average63 °F66%30.09 "Hg
* Reported Oct 11 5:00 AM — Oct 26 4:00 AM, Granada, Weather by CustomWeather, © 2014

Note: Actual official high and low records may vary slightly from our data, if they occured in-between our weather recording intervals... More about our weather records

Advertising

Granada weather history for previous 24 hours

 ConditionsComfort  
Time TempWeatherWind HumidityBarometerVisibility
4:00 AM
Oct 26
46 °FClear.No wind87%30.18 "Hg10 mi
3:30 AM46 °FClear.1 mph82%30.18 "Hg10 mi
3:00 AM46 °FClear.No wind87%30.18 "Hg10 mi
2:30 AM48 °FClear.No wind82%30.18 "Hg10 mi
2:00 AM48 °FClear.No wind82%30.18 "Hg10 mi
2:30 AM50 °FClear.No wind82%30.18 "Hg10 mi
2:00 AM50 °FClear.No wind82%30.18 "Hg10 mi
1:30 AM50 °FClear.No wind82%30.18 "Hg10 mi
1:00 AM52 °FClear.No wind77%30.18 "Hg10 mi
12:30 AM52 °FClear.No wind82%30.18 "Hg10 mi
12:00 AM54 °FClear.No wind77%30.18 "Hg10 mi
11:30 PM
Oct 25
55 °FClear.2 mph72%30.18 "Hg10 mi
11:00 PM57 °FClear.1 mph67%30.18 "Hg10 mi
10:30 PM61 °FClear.No wind63%30.15 "Hg10 mi
10:00 PM63 °FClear.No wind52%30.15 "Hg10 mi
9:30 PM63 °FClear.No wind52%30.15 "Hg10 mi
9:00 PM64 °FClear.No wind49%30.12 "Hg10 mi
8:30 PM66 °FClear.1 mph43%30.12 "Hg10 mi
8:00 PM68 °FSunny.1 mph35%30.12 "Hg10 mi
7:30 PM73 °FSunny.3 mph31%30.09 "Hg10 mi
7:00 PM77 °FPassing clouds.5 mph28%30.09 "HgN/A
6:30 PM81 °FPassing clouds.7 mph24%30.09 "HgN/A
6:00 PM82 °FPassing clouds.8 mph23%30.09 "HgN/A
5:30 PM84 °FSunny.2 mph20%30.09 "Hg10 mi
5:00 PM84 °FSunny.1 mph18%30.09 "Hg10 mi
4:00 PM84 °FSunny.No wind16%30.09 "Hg10 mi
3:30 PM82 °FSunny.2 mph19%30.09 "Hg10 mi
3:00 PM82 °FSunny.2 mph17%30.09 "Hg10 mi
2:30 PM82 °FSunny.2 mph20%30.09 "Hg10 mi
2:00 PM79 °FSunny.3 mph24%30.12 "Hg10 mi
1:30 PM77 °FPassing clouds.5 mph28%30.12 "HgN/A
1:00 PM75 °FSunny.1 mph31%30.15 "Hg10 mi
12:30 PM72 °FSunny.No wind38%30.15 "Hg10 mi
12:00 PM68 °FSunny.1 mph40%30.15 "Hg10 mi
11:30 AM64 °FSunny.No wind56%30.15 "Hg10 mi
11:00 AM61 °FSunny.No wind59%30.15 "Hg10 mi
10:30 AM59 °FSunny.No wind63%30.15 "Hg10 mi
10:00 AM54 °FSunny.No wind77%30.15 "Hg10 mi
9:30 AM52 °FClear.No wind82%30.12 "Hg10 mi
9:00 AM46 °FClear.No wind87%30.12 "Hg10 mi
8:30 AM45 °FClear.No wind93%30.12 "Hg10 mi
8:00 AM45 °FClear.No wind87%30.12 "Hg10 mi
7:30 AM46 °FClear.No wind87%30.09 "Hg10 mi
7:00 AM46 °FClear.1 mph87%30.09 "Hg10 mi
6:30 AM46 °FClear.1 mph87%30.09 "Hg10 mi
6:00 AM46 °FClear.No wind87%30.09 "Hg10 mi
5:30 AM46 °FClear.No wind87%30.09 "Hg10 mi
5:00 AM48 °FClear.No wind87%30.09 "Hg10 mi
Weather by CustomWeather, © 2014

See weather overviewHow to use our weather pages